GW5214 Weather Reports


time (UTC)temp
C
wind
direction
speed
KPH
gust
KPH
rain 1hr
cm
rain 24hr
cm
rain mn
cm
humidity
%
barometer
mb
20260505101515 12 5 0.0 3.2 0.00 0.00 0.00 57 1000.5
20260505100047 12 43 0.0 3.2 0.00 0.00 0.00 56 1000.6
20260505094516 12 5 0.0 4.8 0.00 0.00 0.00 55 1000.8
20260505093044 12 5 1.6 6.4 0.00 0.00 0.00 55 1000.7
20260505091512 12 317 0.0 8.0 0.00 0.00 0.00 56 1000.8
20260505090043 12 51 0.0 1.6 0.00 0.00 0.00 56 1000.8
20260505084517 12 19 1.6 4.8 0.00 0.00 0.00 55 1000.7
20260505083041 12 82 0.0 8.0 0.00 0.00 0.00 56 1000.8
20260505081510 12 71 0.0 8.0 0.00 0.00 0.00 58 1000.9
20260505080044 12 66 0.0 4.8 0.00 0.00 0.00 59 1001.1
20260505074509 13 150 4.8 11.3 0.00 0.00 0.00 58 1001.4
20260505073047 13 96 0.0 4.8 0.00 0.00 0.00 59 1001.6
20260505071520 13 188 1.6 14.5 0.00 0.00 0.00 59 1001.6
20260505070039 13 179 0.0 9.7 0.00 0.00 0.00 58 1001.7
20260505064516 13 257 1.6 4.8 0.00 0.00 0.00 57 1001.8
20260505063038 14 200 1.6 6.4 0.00 0.00 0.00 55 1001.8
20260505061510 15 251 1.6 6.4 0.00 0.00 0.00 49 1001.3
20260505060037 15 319 3.2 8.0 0.00 0.00 0.00 47 1001.1
20260505054505 15 306 0.0 4.8 0.00 0.00 0.00 45 1000.8
20260505053051 15 292 1.6 6.4 0.00 0.00 0.00 45 1000.8
20260505051506 15 207 0.0 6.4 0.00 0.00 0.00 45 1000.7
20260505041602 15 261 0.0 6.4 0.00 0.00 0.00 41 999.6
20260505040040 15 12 0.0 1.6 0.00 0.00 0.00 41 999.4
20260505034601 16 13 1.6 4.8 0.00 0.00 0.00 40 999.2
20260505033031 16 355 0.0 1.6 0.00 0.00 0.00 39 999.1
20260505031559 16 355 1.6 3.2 0.00 0.00 0.00 37 998.9
20260505030027 16 35 0.0 4.8 0.00 0.00 0.00 37 998.7
20260505024555 16 355 0.0 3.2 0.00 0.00 0.00 37 998.5
20260505023023 17 336 0.0 3.2 0.00 0.00 0.00 35 998.4
20260505021559 17 225 0.0 1.6 0.00 0.00 0.00 32 998.2
20260505020022 17 224 0.0 3.2 0.00 0.00 0.00 35 998.0
20260505014550 18 220 3.2 8.0 0.00 0.00 0.00 35 997.9
20260505013019 18 211 0.0 4.8 0.00 0.00 0.00 35 997.8
20260505011553 19 221 0.0 4.8 0.00 0.00 0.00 36 997.9
20260505010014 20 242 1.6 4.8 0.00 0.00 0.00 31 997.9
20260505004545 20 241 1.6 9.7 0.00 0.00 0.00 31 998.0
20260505003013 20 202 1.6 6.4 0.00 0.00 0.00 31 998.1
20260505001545 21 245 3.2 8.0 0.00 0.00 0.00 32 998.3
20260505000012 21 263 1.6 6.4 0.00 0.00 0.00 34 998.3
20260504234543 21 201 3.2 11.3 0.00 0.00 0.00 34 998.4
20260504233012 21 244 4.8 12.9 0.00 0.00 0.00 32 998.5
20260504231542 21 281 4.8 9.7 0.00 0.00 0.00 35 998.2
20260504230010 21 250 3.2 9.7 0.00 0.00 0.00 28 998.2
20260504224542 22 18 4.8 9.7 0.00 0.00 0.00 25 998.2
20260504223009 22 208 1.6 6.4 0.00 0.00 0.00 25 998.2
20260504221541 22 269 4.8 12.9 0.00 0.00 0.00 23 998.4
20260504220008 22 234 1.6 9.7 0.00 0.00 0.00 21 998.5
20260504214547 22 233 3.2 9.7 0.00 0.00 0.00 24 998.7
20260504213005 23 261 1.6 8.0 0.00 0.00 0.00 29 999.0
20260504211536 22 264 1.6 8.0 0.00 0.00 0.00 29 999.1
20260504210004 22 223 4.8 11.3 0.00 0.00 0.00 30 999.4
20260504204534 23 305 1.6 4.8 0.00 0.00 0.00 26 999.5
20260504203009 22 184 1.6 6.4 0.00 0.00 0.00 32 999.6
20260504201529 22 264 3.2 12.9 0.00 0.00 0.00 28 999.8
20260504200058 22 223 3.2 8.0 0.00 0.00 0.00 29 1000.0
20260504194523 22 243 3.2 11.3 0.00 0.00 0.00 33 1000.2
20260504193053 22 271 4.8 11.3 0.00 0.00 0.00 32 1000.4
20260504191535 21 256 3.2 8.0 0.00 0.00 0.00 30 1000.5
20260504190107 21 294 3.2 9.7 0.00 0.00 0.00 34 1000.8
20260504184519 21 350 3.2 8.0 0.00 0.00 0.00 32 1000.8
20260504183051 21 284 3.2 8.0 0.00 0.00 0.00 34 1001.2
20260504181523 21 212 1.6 8.0 0.00 0.00 0.00 35 1001.4
20260504180045 21 157 1.6 4.8 0.00 0.00 0.00 30 1001.5
20260504174518 20 206 1.6 8.0 0.00 0.00 0.00 35 1001.7
20260504173042 20 301 3.2 8.0 0.00 0.00 0.00 34 1001.9
20260504171510 20 194 0.0 6.4 0.00 0.00 0.00 42 1002.1